Volver al catálogo

DELTA 1 DEB

ActivoSSO
NORAD 13537·DEBRIS·🇺🇸 United States

Lanzado Jul 29, 1976 desde Vandenberg Space Force Base

Loading…

Próximos Pases (próximas 24 horas)

TLE

ActualizadoSource: Space-Track

Época: Sep 13, 2026, 22:01 UTC

1 13537U 76077EK  26256.91797146 -.00000029  00000-0  14714-3 0  9993
2 13537 102.5631 243.3360 0075100 136.6118 251.1317 12.27250487144152

Sigue DELTA 1 DEB en tiempo real con AllMySat

Download on the App Store